Weather History for Rawlins, WY

Change the Weather History Date:

Friday, March 29, 2013

  Actual Average Record
Temperature  
Mean Temperature 46 °F 36 °F  
Max Temperature 59 °F 48 °F 67 °F (1986)
Min Temperature 32 °F 24 °F -1 °F (1987)
Degree Days  
Heating Degree Days 19 29  
Month to date heating degree days 944 957  
Since 1 July heating degree days 6545 6914  
Cooling Degree Days 0 0  
Month to date cooling degree days 0 0  
Year to date cooling degree days 0 0  
Moisture  
Dew Point 25 °F    
Average Humidity 50    
Maximum Humidity 75    
Minimum Humidity 24    
Precipitation  
Precipitation T in 0.02 in 0.52 in (2007)
Month to date precipitation 0.07 0.62  
Year to date precipitation 0.65 1.40  
Sea Level Pressure  
Sea Level Pressure 30.03 in    
Wind  
Wind Speed 12 mph (WSW)    
Max Wind Speed 31 mph    
Max Gust Speed 39 mph    
Visibility 10 miles    
Events      
T = Trace of Precipitation, MM = Missing Value Source: NWS Daily Summary

Daily Weather History Graph

Daily Weather History Graph

Search for Another Location

Airport:

Trip Planner

Search our weather history database for the weather conditions in past years. The results will help you decide how hot, cold, wet, or windy it might be!

Date:

Astronomy

Mar. 29, 2013 Rise Set
Actual Time 6:56 AM MDT 7:31 PM MDT
Civil Twilight 6:28 AM MDT 7:59 PM MDT
Nautical Twilight 5:55 AM MDT 8:32 PM MDT
Astronomical Twilight 5:21 AM MDT 9:06 PM MDT
Moon 10:37 PM MDT (3/29) 8:04 AM MDT (3/29)
Length of Visible Light 13h 31m
Length of Day
12h 35m
Waning Gibbous, 93% of the Moon is Illuminated
Mar 29
Waning Gibbous
Apr 2
Last Quarter
Apr 10
New
Apr 18
First Quarter
Apr 25
Full

Hourly Weather History & Observations

Time (MDT) Temp. Windchill Dew Point Humidity Pressure Visibility Wind Dir Wind Speed Gust Speed Precip Events Conditions
12:53 AM 43.0 °F 41.3 °F 25.0 °F 49% 29.99 in 10.0 mi SSE 3.5 mph - N/A   Overcast
1:53 AM 39.9 °F - 24.1 °F 53% 30.01 in 10.0 mi Calm Calm - N/A   Overcast
2:53 AM 37.9 °F - 25.0 °F 60% 29.99 in 10.0 mi Calm Calm - N/A   Mostly Cloudy
3:53 AM 39.9 °F 35.1 °F 26.1 °F 58% 30.00 in 10.0 mi SSW 6.9 mph - N/A   Overcast
4:53 AM 37.0 °F 31.0 °F 26.1 °F 65% 30.00 in 10.0 mi WSW 8.1 mph - N/A   Scattered Clouds
5:53 AM 36.0 °F 33.3 °F 28.0 °F 73% 30.04 in 10.0 mi WSW 3.5 mph - N/A   Clear
6:53 AM 33.1 °F - 26.1 °F 75% 30.07 in 10.0 mi Calm Calm - N/A   Clear
7:53 AM 37.9 °F 32.1 °F 28.0 °F 68% 30.12 in 10.0 mi WSW 8.1 mph - N/A   Clear
8:53 AM 44.1 °F 37.4 °F 30.0 °F 58% 30.09 in 10.0 mi WSW 13.8 mph - N/A   Clear
9:53 AM 48.0 °F - 30.0 °F 50% 30.06 in 10.0 mi WSW 15.0 mph - N/A   Clear
10:53 AM 52.0 °F - 28.0 °F 40% 30.03 in 10.0 mi West 20.7 mph 26.5 mph N/A   Partly Cloudy
11:53 AM 54.0 °F - 26.1 °F 34% 30.02 in 10.0 mi WSW 18.4 mph 26.5 mph N/A   Partly Cloudy
12:53 PM 55.0 °F - 24.1 °F 30% 30.00 in 10.0 mi West 17.3 mph 21.9 mph N/A   Mostly Cloudy
1:15 PM 50.0 °F - 26.6 °F 40% 30.16 in 10.0 mi WSW 29.9 mph 38.0 mph 0.00 in   Overcast
1:53 PM 54.0 °F - 27.0 °F 35% 30.01 in 10.0 mi WSW 16.1 mph 23.0 mph 0.00 in   Scattered Clouds
2:53 PM 57.0 °F - 21.9 °F 26% 29.97 in 10.0 mi West 23.0 mph 31.1 mph N/A   Overcast
3:53 PM 55.0 °F - 19.0 °F 24% 29.96 in 10.0 mi West 21.9 mph 31.1 mph N/A   Mostly Cloudy
4:53 PM 53.1 °F - 19.9 °F 27% 29.99 in 10.0 mi West 20.7 mph - N/A   Scattered Clouds
5:53 PM 52.0 °F - 23.0 °F 32% 30.00 in 10.0 mi West 16.1 mph 24.2 mph 0.00 in   Partly Cloudy
6:53 PM 52.0 °F - 21.0 °F 30% 30.02 in 10.0 mi West 19.6 mph 29.9 mph N/A   Clear
7:53 PM 48.0 °F - 21.9 °F 36% 30.04 in 10.0 mi West 16.1 mph - N/A   Clear
8:53 PM 46.0 °F 39.0 °F 23.0 °F 40% 30.04 in 10.0 mi WNW 17.3 mph - N/A   Clear
9:53 PM 43.0 °F 37.2 °F 23.0 °F 45% 30.05 in 10.0 mi WNW 10.4 mph - N/A   Clear
10:53 PM 43.0 °F 36.0 °F 24.1 °F 47% 30.03 in 10.0 mi West 13.8 mph - N/A   Clear
11:53 PM 36.0 °F 31.1 °F 23.0 °F 59% 30.07 in 10.0 mi SW 5.8 mph - N/A   Clear